Regional Weather Roundup
Issued by NWS Goodland, KS

Home | Current Version | Previous Version | Text Only | Print | Product List | Glossary Off
Versions: 1 2 3 4 5 6 7 8 9 10 11 12 13 14 15 16 17 18 19 20 21 22 23 24 25 26 27 28 29 30 31 32 33 34 35 36 37 38 39 40 41 42 43 44 45 46 47 48 49 50

599
ASUS43 KGLD 231659
RWRGLD

GOODLAND FORECAST AREA HOURLY WEATHER ROUNDUP
NATIONAL WEATHER SERVICE GOODLAND KS
1100 AM MDT SUN APR 23 2017

...OFFICIAL OBSERVATIONS...

CITY           SKY/WX    TMP DP  RH WIND       PRES   REMARKS
GOODLAND KS    SUNNY     59  38  45 S26G32    30.03F
HILL CITY KS   SUNNY     63  34  33 SW16      30.13F
IMPERIAL NEB   MOSUNNY   58  36  43 S20G29    30.01F
MCCOOK NEB     SUNNY     62  33  33 S15G29    30.05F
AKRON CO       CLOUDY    59  35  40 S15G28    29.96F
BURLINGTON CO  NOT AVBL
LIMON CO       CLOUDY    56  35  45 S17G23    30.00F
$$

...UNOFFICIAL OBSERVATIONS...

CITY           SKY/WX    TMP DP  RH WIND       PRES   REMARKS
LENORA KS        N/A     59  32  36 MISG        N/A
NORTON KS      SUNNY     61  28  29 S17G24    30.10F
SHARON SPRINGS   N/A     58  41  53 S28G36      N/A
TRENTON NEB      N/A     60  32  34 SW13G20     N/A
KIT CARSON CO    N/A     55  38  53 MISG        N/A
YUMA CO        FAIR      55  34  44 S23G30    29.97F
$$




USA.gov is the U.S. government's official web portal to all federal, state and local government web resources and services.